TimeCST,TemperatureF,Dew PointF,Humidity,Sea Level PressureIn,VisibilityMPH,Wind Direction,Wind SpeedMPH,Gust SpeedMPH,PrecipitationIn,Events,Conditions,WindDirDegrees,DateUTC
12:56 AM,32.0,26.1,79,29.66,9.0,SE,10.4,-,N/A,,Clear,130,2013-03-04 06:56:00
1:56 AM,30.9,25.0,79,29.66,10.0,SE,10.4,-,N/A,,Clear,130,2013-03-04 07:56:00
2:56 AM,30.0,24.1,79,29.66,10.0,ESE,6.9,-,N/A,,Clear,120,2013-03-04 08:56:00
3:56 AM,28.9,24.1,82,29.65,10.0,SE,9.2,-,N/A,,Clear,130,2013-03-04 09:56:00
4:56 AM,28.0,23.0,81,29.68,10.0,SE,6.9,-,N/A,,Clear,130,2013-03-04 10:56:00
5:56 AM,27.0,23.0,85,29.70,10.0,ESE,3.5,-,N/A,,Partly Cloudy,120,2013-03-04 11:56:00
6:34 AM,28.4,24.8,86,29.66,10.0,ENE,3.5,-,N/A,,Mostly Cloudy,70,2013-03-04 12:34:00
6:56 AM,28.9,24.1,82,29.71,10.0,Calm,Calm,-,N/A,,Overcast,0,2013-03-04 12:56:00
7:56 AM,30.0,24.1,79,29.75,10.0,Calm,Calm,-,N/A,,Overcast,0,2013-03-04 13:56:00
8:38 AM,30.2,24.8,80,29.72,10.0,Calm,Calm,-,N/A,,Overcast,0,2013-03-04 14:38:00
8:56 AM,30.9,24.1,76,29.77,10.0,Calm,Calm,-,N/A,,Overcast,0,2013-03-04 14:56:00
9:56 AM,32.0,26.1,79,29.78,8.0,NNW,9.2,-,N/A,,Overcast,330,2013-03-04 15:56:00
10:16 AM,32.0,26.6,80,29.75,6.0,NW,10.4,-,N/A,,Haze,320,2013-03-04 16:16:00
10:56 AM,33.1,28.9,85,29.81,6.0,NNW,13.8,-,N/A,,Overcast,340,2013-03-04 16:56:00
12:56 PM,37.0,30.0,76,29.83,9.0,North,20.7,24.2,N/A,,Overcast,350,2013-03-04 18:56:00
1:26 PM,39.2,30.2,70,29.79,10.0,North,18.4,26.5,N/A,,Overcast,360,2013-03-04 19:26:00
1:48 PM,41.0,28.4,61,29.77,10.0,North,18.4,29.9,N/A,,Overcast,360,2013-03-04 19:48:00
1:56 PM,42.1,28.9,60,29.81,10.0,North,20.7,26.5,N/A,,Overcast,10,2013-03-04 19:56:00
2:56 PM,42.1,28.9,60,29.80,10.0,North,19.6,-,N/A,,Clear,10,2013-03-04 20:56:00
3:56 PM,41.0,28.9,62,29.85,10.0,North,16.1,-,N/A,,Clear,10,2013-03-04 21:56:00
4:56 PM,39.0,28.9,67,29.91,10.0,North,11.5,-,N/A,,Partly Cloudy,10,2013-03-04 22:56:00
5:56 PM,37.0,28.0,70,29.94,10.0,North,5.8,-,N/A,,Overcast,350,2013-03-04 23:56:00
6:56 PM,36.0,28.0,73,29.99,10.0,NNW,5.8,-,N/A,,Overcast,340,2013-03-05 00:56:00
7:56 PM,35.1,26.1,70,30.03,10.0,NW,8.1,-,N/A,,Overcast,310,2013-03-05 01:56:00
8:56 PM,34.0,14.0,44,30.05,10.0,NW,21.9,28.8,N/A,,Overcast,320,2013-03-05 02:56:00
9:56 PM,32.0,14.0,48,30.06,10.0,NW,19.6,27.6,N/A,,Overcast,310,2013-03-05 03:56:00
10:56 PM,28.0,14.0,56,30.08,10.0,NW,21.9,29.9,N/A,,Partly Cloudy,310,2013-03-05 04:56:00
11:56 PM,27.0,15.1,61,30.07,10.0,WNW,21.9,29.9,N/A,,Clear,300,2013-03-05 05:56:00